Showing default

VIZARD-ION, 61749

Orbit data source: Space-Track

VIZARD-ION, 61749 is a Commonwealth of Independent States-origin payload satellite in SSO that was launched on Mon, 04 Nov 2024 UTC via a SOYUZ-2-1B launch vehicle from the Vostochny Cosmodrome (VOSTO). Payload-class satellites include a variety of spacecraft equipped with specific instruments for various scientific and technological missions. These include communications satellites like Starlink; space stations such as the ISS; scientific satellites like the Hubble; Earth observation satellites from companies like Planet Labs, Umbra, and HawkEye 360; GPS; miniature CubeSats for education and research; and military/defense satellites.

Loading next visibility...
Identifier
61749, 2024-199Q
Orbit
SSO
Country
Flag of CISCIS
Related business
Manufacturer
Geoskan
Mission
Operational Commercial Technology
Bus & Motor
CUBESAT 3U, Unknown motor
Mass
3 kg wet, 3 kg dry
Launch date (UTC)
2024-11-04 (2 years ago)
Launch vehicle
SOYUZ-2-1B
Launch site
Vostochny Cosmodrome (VOSTO)
Object type
Payload
Rocket body
Debris
Shape & HBR
Box, 0.1 m
Radar Cross Section
0.035 m², Small (<0.1 m²)

Expand to show TLE details & history
Last TLE update: 6 hours ago

TLE from 6 hours ago
0 VIZARD-ION
1 61749U 24199Q   26128.20861188  .00028633  00000-0  46791-3 0  9997
2 61749  97.3044   3.7117 0008546  70.5398 289.6778 15.52472037131367
Epoch: 2026-05-08T05:00Z
TLE epoch observation values (Epoch: 2026-05-08T05:00:24.066Z)
Latitude
0.00002°
Longitude
62.56773°
Altitude
410.699 km
Speed
7.666 km/s
True Right ascension
00h 14m 50s
True Declination
0° 00' 00"
Sunlit
Object was in daylight at epoch
Visualization orbit readout
Latitude
Unknown
Longitude
Unknown
Altitude
Unknown
Speed
Unknown
Apparent Right ascension
Unknown
Apparent Declination
Unknown
Sunlit
N/A
Visualization observer readout
Local Sidereal Time
18:47:14
Azimuth
Unknown
Elevation
Unknown
Doppler factor
Unknown
Orbital elements
Apogee altitude
412.227 km
Perigee altitude
400.631 km
Semi-major axis
6,784.566 km
Eccentricity
0.00085
Inclination
97.3044°
RAAN
3.7117°
Arg. of periapsis
70.5398°
True anomaly
289.58556°
Mean anomaly
289.6778°
Eccentric anomaly
289.63168°
Mean motion
3.88383 °/min
Orbital period
92.69 mins
BSTAR
0.00046791
Loading maneuver chart data...
Computing Atmospheric mass density...
Loading historical data...
Loading historical data...
Loading historical data...
Loading historical data...
Loading historical data...
Loading historical data...
Loading historical data...

Documentation

Showing up to 5 results
|